Temp
62 61 61 61 61 60 61 60 61 61 61 61 60 60 59 60 60 59 59 59 59 60 61 62 63 63 69 83 86 88 82 82 88 88 88 85 82 81 78 81 80 78 84 86 87 86 87
61 61 61 61 60 60 59 60 60 60 60 60 60 59 60 60 60 60 60 59 59 59 61 62 63 63 78 82 90 88 88 87 89 90 88 88 85 85 81 81 79 86 85 86 86 87 88
60 60 60 60 60 59 59 60 60 60 60 60 59 59 59 59 59 60 60 59 59 60 61 63 64 70 80 87 90 89 91 90 90 91 87 89 89 86 86 81 86 86 83 86 85 85 85
60 60 60 59 59 59 59 59 59 59 59 59 59 59 59 58 59 58 58 58 59 61 63 64 65 73 83 89 90 88 91 90 91 92 91 92 91 86 83 86 85 81 84 78 84 85 84
60 60 59 59 59 59 59 59 59 59 59 59 59 59 58 58 58 58 58 58 60 64 65 67 74 79 84 83 87 90 93 91 90 90 91 93 90 84 85 79 79 81 74 77 79 87 84
60 59 59 59 60 59 59 59 59 59 59 59 58 58 58 58 57 57 57 58 63 65 69 74 78 80 87 87 89 88 90 92 89 88 85 85 85 82 82 82 71 75 74 76 76 83 84
59 60 59 60 59 59 58 59 59 59 59 58 58 58 58 57 57 56 58 73 80 79 77 83 83 81 86 92 92 88 90 89 90 87 81 81 79 77 80 81 81 78 75 73 79 84 81
59 59 59 59 59 58 58 58 58 58 58 58 57 57 57 57 56 56 58 79 76 77 76 80 79 81 85 89 85 88 93 86 83 79 81 79 76 83 83 83 80 79 77 78 79 78 79
60 59 59 59 59 58 58 58 58 58 57 57 57 57 57 56 56 61 67 76 75 79 75 78 80 80 85 89 85 87 90 86 82 79 79 77 81 83 81 82 81 80 78 79 76 77 77
59 59 59 59 58 58 58 58 58 57 57 57 57 56 56 54 62 63 74 74 74 76 71 74 77 83 84 88 84 92 94 90 83 80 79 79 83 81 81 80 82 77 84 82 81 76 73
59 59 59 59 58 58 58 57 57 58 57 57 56 56 55 55 55 71 74 72 75 79 58 77 79 88 83 84 87 86 91 88 83 81 80 79 80 80 79 81 83 79 83 79 76 75 74
59 59 59 58 58 58 58 57 57 57 57 56 56 55 55 57 56 67 69 72 79 71 58 74 80 78 78 82 85 85 86 90 88 82 80 81 83 83 83 85 85 86 81 76 75 75 69
59 59 58 58 58 58 58 57 57 57 56 56 55 55 54 59 73 65 69 79 70 61 74 73 76 78 77 77 80 83 81 80 79 72 73 79 81 84 86 81 83 81 79 70 67 68 68
59 58 58 58 58 57 57 58 57 57 56 56 54 53 55 58 61 63 76 75 59 67 69 77 76 75 74 77 78 81 78 76 77 78 74 72 70 81 84 83 81 79 81 72 60 65 70
58 59 58 58 57 57 57 57 57 57 56 55 53 58 59 63 61 62 76 66 67 67 73 74 76 71 72 76 76 77 79 79 81 80 73 71 71 80 82 85 85 76 74 80 71 65 67
58 58 58 57 57 57 57 57 57 56 55 54 51 62 68 64 63 73 73 60 68 72 75 75 69 72 69 73 74 75 75 82 81 82 87 79 69 83 85 84 81 83 83 73 72 61 61
58 58 58 57 57 57 57 57 57 56 54 53 60 71 68 65 66 74 67 67 69 75 75 74 71 71 72 72 74 73 76 81 82 79 82 85 77 78 81 80 80 76 76 74 75 73 67
58 58 57 57 57 57 57 56 56 55 53 53 63 69 70 67 69 60 66 67 62 75 77 77 76 75 73 74 73 74 74 79 84 81 76 80 79 72 77 86 83 85 82 81 72 67 68
58 58 57 57 57 57 57 56 56 55 53 54 64 66 71 71 66 65 66 69 72 73 74 74 73 74 74 73 70 74 76 84 83 81 78 77 75 70 74 77 77 77 80 81 77 75 68
58 58 57 57 57 57 57 57 56 55 54 57 63 66 69 68 64 67 66 67 68 74 74 75 75 75 73 72 75 73 75 83 83 83 70 77 76 74 72 75 78 73 74 76 80 72 73
58 58 57 57 57 57 57 57 56 55 54 56 61 60 60 65 65 66 67 67 66 67 73 73 71 72 73 69 71 71 74 79 84 72 76 81 74 70 76 75 75 77 78 75 75 79 74
58 57 57 57 57 57 57 57 56 54 53 61 60 59 62 61 58 63 59 65 66 68 68 68 67 72 72 68 73 71 74 75 77 78 77 76 72 72 72 74 73 72 77 78 77 76 74
57 57 57 57 57 57 57 57 56 54 54 59 58 59 59 54 61 64 65 64 66 66 71 73 71 69 70 71 73 75 77 77 77 75 74 70 71 70 68 72 71 69 76 77 77 78 81
57 57 57 57 57 58 58 57 57 55 54 54 55 55 59 60 60 63 62 63 65 67 65 71 72 70 74 76 76 74 77 77 77 74 74 69 66 66 69 67 59 77 75 76 76 77 79
57 57 57 57 57 57 58 58 57 56 54 54 54 57 58 58 57 61 61 62 65 66 64 66 73 75 74 72 74 70 73 72 74 69 70 68 68 65 65 67 69 72 74 74 73 77 80
56 56 56 57 57 57 58 58 58 56 54 52 55 56 58 56 60 60 61 60 61 63 66 67 74 74 74 72 70 62 62 66 67 70 69 70 68 70 62 61 59 74 74 77 77 68 81
56 56 56 56 57 57 57 58 58 57 55 54 54 55 57 56 61 59 60 61 63 61 61 63 66 68 70 68 66 64 65 67 64 64 66 68 66 65 67 63 70 73 74 77 65 71 77
56 56 56 56 56 57 57 57 58 57 56 55 55 55 57 55 58 60 63 61 62 63 61 64 66 66 68 63 63 64 63 66 63 66 65 65 64 64 59 58 58 71 73 68 71 75 75
55 55 55 56 56 56 57 57 57 57 56 56 53 56 55 53 58 59 65 68 68 69 65 63 63 61 67 65 64 63 62 63 60 61 65 61 66 65 64 67 68 71 71 75 75 74 77
MSLP
1021.57 1021.27 1020.93 1020.54 1020.34 1020.07 1019.79 1019.48 1019.12 1018.79 1018.41 1018.02 1017.66 1017.27 1016.92 1016.59 1016.21 1015.93 1015.53 1015.18 1014.73 1014.27 1014.04 1013.54 1013.35 1013.14 1012.77 1011.45 1009.71 1008.98 1009.38 1009.57 1009.59 1009.88 1009.75 1009.83 1009.87 1009.83 1009.56 1009.46 1009.26 1008.70 1008.00 1007.78 1007.74 1007.92 1007.87
1021.94 1021.66 1021.25 1020.88 1020.64 1020.39 1020.05 1019.66 1019.33 1018.90 1018.46 1018.06 1017.74 1017.25 1016.86 1016.42 1016.11 1015.84 1015.38 1015.06 1014.64 1014.11 1013.80 1013.63 1013.22 1013.06 1012.25 1010.55 1009.07 1008.86 1009.35 1009.94 1009.68 1009.86 1009.79 1009.88 1009.83 1009.83 1009.49 1009.13 1008.94 1008.19 1007.93 1007.35 1007.21 1007.28 1007.50
1022.20 1021.83 1021.51 1021.22 1020.89 1020.52 1020.17 1019.73 1019.33 1018.97 1018.58 1018.11 1017.69 1017.35 1016.87 1016.38 1015.82 1015.43 1015.15 1014.80 1014.54 1013.89 1013.39 1013.17 1013.22 1012.76 1011.52 1009.86 1009.16 1009.13 1009.37 1009.69 1009.93 1009.85 1009.73 1009.86 1009.83 1009.65 1009.36 1008.79 1008.57 1007.93 1007.31 1006.90 1006.94 1007.03 1007.18
1022.40 1022.07 1021.67 1021.28 1020.98 1020.71 1020.34 1019.90 1019.44 1018.97 1018.58 1018.19 1017.73 1017.24 1016.71 1016.25 1015.74 1015.20 1014.72 1014.38 1014.07 1013.68 1013.08 1012.90 1012.84 1012.37 1010.32 1009.26 1009.31 1009.50 1009.45 1009.66 1009.88 1009.95 1009.85 1009.80 1009.81 1009.49 1009.25 1008.75 1008.10 1007.61 1007.20 1006.86 1006.91 1007.15 1007.50
1022.54 1022.25 1021.89 1021.46 1021.02 1020.60 1020.17 1019.75 1019.30 1018.82 1018.36 1017.97 1017.61 1017.20 1016.85 1016.24 1015.55 1014.95 1014.39 1013.94 1013.51 1013.13 1012.92 1012.65 1012.51 1011.62 1009.57 1009.23 1009.05 1009.02 1009.13 1009.08 1009.59 1009.82 1009.86 1009.76 1009.57 1009.36 1009.03 1008.38 1007.91 1007.52 1007.09 1006.91 1006.80 1006.87 1007.15
1022.65 1022.33 1021.98 1021.58 1021.10 1020.65 1020.13 1019.65 1019.17 1018.69 1018.16 1017.61 1017.13 1016.79 1016.34 1016.02 1015.76 1015.01 1014.04 1013.44 1013.09 1012.86 1012.78 1012.48 1011.89 1011.23 1009.02 1008.66 1008.52 1008.89 1009.20 1009.01 1008.93 1009.39 1009.60 1009.51 1009.33 1009.11 1008.78 1008.10 1007.54 1007.30 1007.17 1006.90 1006.68 1006.61 1006.82
1022.93 1022.52 1022.17 1021.71 1021.30 1020.86 1020.38 1019.89 1019.33 1018.74 1018.13 1017.55 1017.07 1016.56 1016.02 1015.47 1015.13 1014.86 1013.80 1013.01 1013.06 1012.63 1011.90 1010.84 1010.37 1009.77 1008.73 1008.31 1008.25 1008.47 1008.77 1008.89 1008.73 1008.75 1008.81 1009.20 1008.91 1008.35 1008.12 1007.93 1007.70 1007.44 1007.24 1007.19 1006.78 1006.70 1006.87
1023.10 1022.74 1022.26 1021.78 1021.30 1020.90 1020.45 1019.99 1019.47 1018.93 1018.41 1017.79 1017.12 1016.49 1015.95 1015.56 1014.90 1014.43 1014.20 1012.87 1012.72 1012.79 1011.54 1010.01 1009.91 1009.35 1008.89 1008.53 1008.20 1008.24 1008.46 1008.44 1008.52 1008.46 1008.84 1008.99 1008.20 1008.00 1007.93 1007.68 1007.43 1007.02 1006.61 1006.48 1006.88 1007.06 1006.96
1023.22 1022.87 1022.44 1021.96 1021.37 1020.84 1020.37 1019.85 1019.33 1018.84 1018.38 1017.95 1017.39 1016.60 1015.87 1015.32 1014.74 1014.23 1013.71 1012.77 1012.57 1012.14 1011.39 1009.75 1009.25 1008.74 1008.26 1008.26 1007.90 1007.62 1007.98 1007.98 1008.05 1008.26 1008.22 1007.97 1007.75 1007.78 1007.75 1007.20 1006.68 1006.44 1006.26 1006.21 1006.60 1006.99 1007.25
1023.41 1022.98 1022.60 1022.14 1021.66 1021.11 1020.59 1019.97 1019.31 1018.73 1018.19 1017.64 1017.09 1016.58 1016.04 1015.13 1014.76 1014.31 1013.19 1012.59 1012.44 1012.21 1011.07 1009.31 1008.63 1008.00 1008.04 1007.62 1007.34 1006.90 1007.06 1007.16 1007.62 1007.62 1008.03 1007.73 1007.47 1007.30 1007.12 1006.68 1006.43 1005.99 1006.10 1006.14 1006.26 1006.65 1006.64
1023.60 1023.13 1022.56 1022.10 1021.59 1021.07 1020.61 1020.04 1019.40 1018.74 1018.09 1017.49 1016.93 1016.41 1015.98 1015.88 1015.48 1014.01 1012.99 1012.65 1012.22 1011.88 1010.20 1008.58 1007.84 1007.71 1007.65 1007.31 1006.77 1006.70 1006.80 1006.83 1006.72 1007.00 1007.51 1006.92 1006.97 1006.80 1006.29 1006.21 1006.35 1006.17 1006.29 1006.48 1006.55 1006.63 1006.78
1023.66 1023.13 1022.65 1022.13 1021.51 1020.98 1020.42 1019.83 1019.22 1018.63 1018.02 1017.41 1016.92 1016.47 1016.04 1015.56 1015.33 1013.32 1012.88 1012.40 1011.90 1011.12 1009.18 1007.80 1007.36 1007.27 1007.22 1006.94 1006.39 1006.56 1006.63 1006.78 1006.64 1006.82 1006.97 1006.73 1006.89 1006.55 1005.96 1006.04 1006.18 1006.15 1006.24 1006.60 1006.85 1006.72 1006.32
1023.56 1023.15 1022.66 1022.05 1021.49 1020.92 1020.25 1019.60 1018.93 1018.22 1017.58 1016.91 1016.42 1016.08 1016.09 1015.44 1014.10 1013.39 1012.94 1011.91 1011.30 1010.10 1008.81 1007.68 1007.17 1007.01 1006.76 1006.43 1006.25 1006.01 1006.12 1006.33 1006.18 1006.50 1006.40 1006.29 1005.98 1005.94 1005.86 1005.68 1005.86 1005.96 1005.89 1005.77 1006.03 1005.94 1005.83
1023.53 1023.05 1022.52 1021.97 1021.36 1020.69 1019.95 1019.25 1018.55 1017.78 1016.95 1016.14 1015.51 1014.95 1014.67 1014.51 1014.00 1013.63 1012.58 1011.73 1010.61 1009.33 1008.40 1007.70 1007.17 1006.95 1006.58 1006.30 1005.98 1005.85 1005.96 1005.98 1006.41 1006.29 1006.40 1005.98 1005.54 1005.37 1005.11 1004.80 1004.74 1005.23 1005.18 1005.27 1005.21 1005.52 1005.61
1023.76 1023.14 1022.47 1021.80 1021.15 1020.45 1019.72 1018.96 1018.18 1017.36 1016.56 1015.74 1014.87 1014.50 1014.32 1013.77 1013.74 1014.05 1012.30 1011.06 1009.66 1009.07 1008.45 1007.74 1007.07 1006.84 1006.56 1006.35 1006.20 1005.84 1005.50 1005.40 1005.51 1005.86 1005.80 1005.75 1005.30 1005.14 1004.91 1004.62 1004.75 1005.17 1005.39 1005.46 1005.32 1006.32 1005.90
1023.89 1023.30 1022.61 1021.87 1021.12 1020.31 1019.50 1018.67 1017.86 1017.04 1016.04 1015.21 1014.88 1013.96 1013.44 1013.40 1013.47 1012.87 1011.85 1010.57 1009.85 1009.28 1008.58 1008.06 1007.40 1007.22 1006.72 1006.41 1006.02 1005.73 1005.35 1004.71 1004.82 1005.04 1004.99 1005.15 1005.21 1004.53 1004.24 1004.59 1004.85 1004.72 1005.11 1005.44 1005.32 1005.03 1004.65
1023.97 1023.37 1022.70 1022.01 1021.24 1020.40 1019.48 1018.57 1017.63 1016.63 1015.70 1014.81 1014.37 1013.49 1013.38 1013.30 1013.30 1012.20 1011.23 1010.54 1009.85 1009.14 1008.89 1008.20 1007.85 1007.51 1007.15 1006.72 1006.17 1005.82 1005.05 1004.53 1004.44 1004.64 1005.12 1004.77 1005.20 1003.69 1004.46 1003.85 1003.69 1004.70 1004.67 1005.13 1005.10 1004.73 1004.10
1023.97 1023.46 1022.84 1022.22 1021.44 1020.59 1019.66 1018.79 1017.82 1016.67 1015.44 1014.78 1014.20 1013.30 1013.40 1013.45 1012.78 1012.57 1011.28 1010.70 1010.20 1009.11 1008.81 1008.31 1008.06 1007.66 1007.32 1006.88 1006.28 1005.76 1004.93 1004.34 1004.09 1004.49 1004.91 1005.03 1004.71 1003.79 1003.39 1003.02 1003.87 1003.67 1003.46 1003.87 1003.95 1004.33 1004.43
1024.11 1023.52 1022.92 1022.25 1021.52 1020.74 1019.86 1019.05 1018.15 1017.12 1016.37 1015.77 1014.50 1013.73 1013.20 1012.95 1012.31 1011.93 1011.34 1010.51 1009.90 1009.22 1008.75 1008.46 1008.08 1007.83 1007.57 1007.02 1006.61 1005.80 1004.98 1003.97 1004.14 1004.28 1004.23 1004.89 1004.58 1003.78 1002.99 1003.54 1003.83 1003.36 1003.11 1003.32 1003.78 1003.88 1003.44
1024.13 1023.55 1022.99 1022.36 1021.64 1020.84 1019.99 1019.12 1018.11 1017.23 1016.53 1016.13 1014.85 1013.84 1013.18 1012.85 1012.69 1011.66 1011.03 1010.49 1009.78 1009.30 1008.88 1008.54 1008.08 1007.93 1007.79 1007.35 1006.94 1005.98 1005.18 1004.26 1004.27 1004.14 1004.36 1004.57 1004.22 1003.49 1002.72 1002.44 1002.73 1002.86 1002.83 1003.11 1002.89 1002.71 1002.45
1024.23 1023.67 1023.08 1022.50 1021.81 1021.03 1020.15 1019.23 1018.24 1017.13 1016.44 1016.19 1015.22 1014.92 1014.58 1013.38 1012.71 1011.90 1011.16 1010.68 1010.04 1009.46 1009.13 1008.77 1008.27 1007.96 1007.56 1007.30 1006.88 1006.32 1005.70 1004.91 1004.33 1004.54 1004.74 1004.59 1003.98 1003.98 1003.32 1003.12 1002.99 1002.58 1002.42 1002.54 1002.17 1001.87 1001.87
1024.36 1023.82 1023.23 1022.64 1021.99 1021.28 1020.53 1019.81 1018.97 1017.66 1016.27 1016.09 1016.35 1015.92 1015.00 1014.09 1013.34 1012.40 1011.60 1010.87 1010.38 1009.97 1009.61 1008.95 1008.77 1008.32 1008.02 1007.65 1007.01 1006.43 1006.00 1005.36 1004.62 1004.78 1004.66 1004.92 1004.43 1004.18 1003.35 1003.60 1003.14 1002.78 1002.65 1002.37 1002.21 1002.16 1002.06
1024.39 1023.90 1023.35 1022.78 1022.20 1021.56 1020.88 1020.15 1019.34 1018.42 1017.00 1016.98 1017.47 1017.04 1016.18 1014.78 1013.45 1012.67 1011.80 1011.28 1010.82 1010.68 1009.62 1009.21 1008.97 1008.60 1007.75 1007.77 1007.81 1007.15 1006.72 1006.06 1005.77 1005.42 1005.12 1005.26 1004.72 1004.37 1003.52 1003.75 1003.53 1002.65 1002.14 1002.54 1002.00 1001.75 1001.29
1024.38 1023.98 1023.47 1022.90 1022.35 1021.77 1021.12 1020.50 1019.93 1019.46 1019.29 1019.04 1018.62 1018.00 1016.54 1014.96 1014.02 1013.06 1012.39 1011.92 1011.33 1011.01 1010.62 1009.64 1009.16 1008.69 1008.26 1008.02 1007.17 1006.92 1006.35 1005.83 1005.68 1005.76 1005.75 1005.54 1005.38 1004.98 1004.07 1004.10 1003.40 1002.06 1002.33 1002.23 1002.59 1001.71 1001.65
1024.38 1024.00 1023.54 1023.00 1022.50 1021.97 1021.38 1020.82 1020.29 1019.85 1019.69 1019.32 1018.96 1018.34 1017.28 1015.74 1014.83 1013.57 1013.08 1012.55 1011.93 1011.50 1011.10 1010.19 1009.33 1008.94 1008.73 1007.90 1006.98 1006.47 1005.93 1005.43 1005.25 1005.93 1006.07 1006.36 1005.88 1005.41 1004.93 1003.80 1003.10 1002.57 1002.58 1002.85 1002.49 1001.44 1001.62
1024.30 1023.93 1023.55 1023.05 1022.58 1022.07 1021.53 1020.98 1020.51 1020.16 1019.88 1019.46 1019.13 1018.82 1017.91 1016.75 1014.95 1014.41 1013.67 1013.29 1012.54 1011.93 1011.13 1010.39 1009.80 1009.54 1008.81 1008.02 1007.39 1006.80 1006.20 1006.01 1005.85 1006.09 1006.43 1006.31 1006.21 1005.54 1005.47 1004.18 1003.02 1002.41 1002.89 1003.12 1003.13 1002.02 1001.82
1024.21 1023.81 1023.43 1022.98 1022.57 1022.15 1021.68 1021.18 1020.68 1020.28 1019.98 1019.67 1019.28 1019.13 1018.38 1017.19 1015.37 1014.99 1014.02 1013.47 1013.23 1012.80 1012.12 1011.55 1010.85 1009.88 1009.37 1008.44 1007.73 1007.33 1006.74 1006.79 1006.61 1006.46 1006.41 1006.24 1006.13 1005.74 1004.92 1004.57 1003.56 1003.62 1003.71 1003.78 1003.43 1002.55 1002.40
1024.09 1023.72 1023.33 1022.91 1022.49 1022.09 1021.66 1021.23 1020.79 1020.42 1020.10 1019.66 1019.28 1019.19 1018.89 1017.92 1015.98 1015.17 1014.47 1013.82 1013.54 1013.14 1012.61 1012.32 1011.63 1011.05 1010.08 1009.33 1008.81 1008.13 1007.76 1007.53 1007.30 1006.98 1006.78 1006.62 1006.46 1006.12 1006.25 1005.42 1004.71 1004.75 1004.49 1004.42 1004.22 1003.46 1003.38
1023.88 1023.51 1023.13 1022.74 1022.34 1021.93 1021.50 1021.08 1020.70 1020.34 1020.02 1019.77 1019.52 1019.39 1019.42 1018.64 1016.31 1015.54 1014.52 1013.84 1013.41 1013.13 1013.26 1012.90 1012.32 1011.68 1011.08 1010.38 1010.00 1009.55 1008.83 1008.62 1008.16 1007.09 1007.42 1007.43 1007.09 1006.79 1006.69 1005.50 1005.28 1005.28 1005.00 1004.77 1004.67 1004.28 1003.79
Wind_Speed
16 17 17 17 17 17 16 16 16 16 15 15 16 16 16 15 16 16 16 16 16 15 13 13 12 10 3 2 1 4 12 11 9 3 5 4 2 2 4 4 3 3 4 2 4 4 3
17 16 16 17 17 17 17 17 16 16 16 16 16 16 16 16 15 15 15 16 16 16 14 12 11 10 3 1 2 4 14 14 7 5 5 4 3 2 2 4 3 7 8 9 4 8 7
17 17 17 17 17 17 17 17 17 16 16 16 17 16 17 17 18 17 16 16 15 16 15 12 7 4 2 1 3 7 9 6 4 3 2 3 1 5 7 6 4 8 4 1 2 5 5
18 18 18 18 18 17 18 18 18 18 17 17 17 18 19 19 18 19 19 18 16 13 9 7 5 2 4 3 5 9 4 4 4 3 0 3 3 4 3 7 4 2 3 5 4 5 4
18 18 18 18 19 19 18 18 19 18 18 18 18 18 18 18 20 21 20 19 15 6 2 2 2 3 2 2 3 5 6 3 7 4 2 4 2 3 3 5 1 4 4 7 3 7 4
18 19 19 19 18 19 20 20 20 20 21 20 20 21 19 18 18 20 22 16 4 3 4 3 2 4 2 2 4 5 3 4 3 7 4 2 1 1 1 3 6 8 4 3 7 4 9
18 18 19 19 19 19 19 19 20 21 21 21 22 22 21 22 21 19 9 1 2 1 1 4 2 2 3 3 5 3 5 5 1 2 3 2 4 4 5 5 6 6 4 2 8 4 6
18 18 19 20 20 20 19 19 21 20 20 21 22 22 22 22 22 11 2 2 6 3 5 7 7 7 5 2 3 3 8 7 5 5 4 4 8 7 6 8 7 3 3 4 2 3 6
17 18 18 19 20 20 20 21 22 21 21 20 20 21 23 20 21 3 3 3 3 2 3 3 4 4 4 10 7 6 13 6 5 7 9 9 2 5 7 5 7 2 3 9 6 1 2
18 18 18 19 19 19 20 22 21 22 21 21 21 21 21 26 4 4 1 2 7 4 2 4 3 2 5 6 5 6 14 5 6 7 7 6 2 6 3 4 3 5 3 9 14 4 4
18 18 19 19 20 20 20 20 21 21 21 21 20 20 20 12 7 3 3 7 2 4 3 3 3 2 3 8 6 8 5 3 11 9 5 4 6 4 6 3 2 4 7 7 4 3 4
18 18 18 19 20 21 21 21 21 21 21 21 20 19 18 1 2 5 6 5 3 1 5 2 3 3 5 4 3 4 6 2 1 6 5 6 0 4 3 4 9 12 4 2 3 3 5
18 19 19 18 18 19 21 22 22 22 22 22 21 19 9 2 1 5 6 2 2 4 3 2 1 3 3 7 8 5 6 9 9 6 9 7 12 4 6 9 3 5 6 4 5 5 8
19 19 18 19 19 19 19 20 20 21 24 24 25 17 5 4 3 6 2 2 4 1 4 2 3 1 4 5 4 11 6 7 3 3 3 6 10 5 5 12 11 7 5 6 8 9 11
19 19 21 21 20 21 21 21 22 25 25 24 19 1 2 2 6 3 3 4 4 5 2 5 2 4 2 2 3 5 13 11 7 12 11 5 8 3 6 3 5 5 6 3 2 2 3
18 19 20 20 21 22 23 24 25 27 26 21 3 2 3 4 6 3 2 4 3 3 3 2 2 1 3 5 1 3 8 6 12 16 14 8 11 10 14 2 1 7 8 4 2 4 6
18 19 19 20 21 22 24 25 29 30 28 11 2 2 6 3 3 1 6 5 4 5 4 3 0 3 2 4 1 2 4 4 6 2 12 12 9 19 4 8 9 5 5 2 2 3 6
18 18 19 20 21 22 23 24 28 30 29 2 2 2 3 3 2 1 4 4 1 1 3 4 3 6 6 4 4 4 7 8 8 9 9 9 5 13 22 10 4 8 11 9 5 5 3
18 18 19 19 21 22 23 24 25 28 21 4 2 2 2 3 2 2 1 2 3 2 2 1 3 5 2 3 3 6 5 3 7 9 9 10 7 7 5 5 4 7 9 8 4 2 8
18 19 19 19 20 21 23 24 26 26 19 2 1 2 2 2 1 2 2 1 1 3 5 4 4 3 3 5 6 6 5 3 3 4 4 10 5 7 10 4 2 5 7 11 12 6 7
18 19 18 19 20 21 22 24 27 29 20 3 4 3 2 2 2 1 2 2 1 2 3 2 2 8 7 5 3 7 6 9 7 6 4 7 7 5 9 7 5 8 9 14 13 10 8
17 18 18 19 20 20 21 23 24 28 23 3 3 3 1 1 2 3 1 3 2 1 3 1 3 11 6 7 8 5 7 4 6 3 6 5 4 5 3 4 0 2 7 11 12 6 12
17 18 19 18 19 20 20 21 22 26 17 4 2 1 3 1 1 3 2 1 2 1 4 8 6 8 5 2 8 14 12 13 8 4 3 3 5 4 9 3 4 6 8 12 7 7 8
15 16 17 18 19 19 19 20 20 19 16 2 2 1 2 1 2 2 1 2 5 3 5 5 7 3 3 12 10 7 9 8 6 2 4 2 3 2 3 2 10 6 2 4 14 8 11
15 16 17 17 19 20 19 18 18 16 19 2 0 2 2 3 2 5 2 4 7 6 4 4 4 5 9 5 3 3 2 3 3 3 2 2 3 3 5 9 5 4 4 6 8 10 12
14 15 16 17 18 19 19 19 17 15 18 2 1 1 1 3 2 3 2 2 3 4 4 3 4 7 5 1 1 4 5 2 3 3 1 4 2 4 3 6 12 4 3 2 1 11 6
14 14 16 17 17 18 18 18 18 16 16 5 2 2 2 3 2 3 4 1 1 1 3 4 8 5 4 2 4 5 6 1 5 5 3 2 3 8 9 8 7 3 0 3 8 9 4
14 14 15 16 17 17 18 17 17 16 15 7 3 2 3 2 7 6 3 4 3 2 2 4 4 2 2 2 3 1 4 3 3 2 3 6 5 5 2 5 9 2 2 6 6 6 6
14 14 15 15 17 17 18 18 17 15 14 8 2 2 2 4 5 3 7 10 8 7 4 3 4 2 1 1 0 2 2 2 3 7 2 5 3 3 6 2 2 3 6 6 7 7 5
Wind_Direction
28 23 20 18 18 16 14 11 8 6 3 359 357 353 350 346 345 339 334 330 324 320 319 312 316 320 283 264 61 75 141 153 165 162 165 139 85 349 360 326 281 244 311 311 230 143 160
25 23 18 17 16 13 10 7 5 1 359 356 355 350 347 342 341 334 329 326 321 313 310 305 310 313 271 246 46 175 139 154 181 182 165 150 128 329 298 321 275 319 296 298 245 212 190
22 19 16 15 13 9 6 2 0 359 356 353 351 349 346 341 336 331 327 322 316 310 303 297 295 292 272 284 56 149 146 146 167 174 148 217 278 330 328 300 335 296 314 332 87 164 168
19 16 13 10 9 7 4 0 358 354 354 352 348 346 344 340 335 330 326 320 316 306 289 276 274 254 261 9 139 152 142 120 124 192 272 341 225 290 276 308 312 312 64 344 23 151 131
16 14 12 9 5 2 360 357 354 352 350 347 346 345 343 337 335 329 323 318 311 306 223 218 241 306 249 173 198 164 183 153 154 173 257 281 293 348 304 335 20 43 352 334 301 206 163
12 11 9 7 4 359 356 354 353 350 347 345 344 344 339 337 335 329 318 308 286 288 206 214 242 272 220 94 141 137 195 163 147 145 154 190 186 283 238 334 16 334 329 296 285 193 214
10 8 6 3 0 358 356 353 349 346 345 344 343 340 337 336 335 331 323 174 251 196 342 237 115 302 305 350 147 131 160 176 120 146 181 161 258 284 292 265 299 292 256 287 285 276 259
8 6 1 0 359 356 353 350 347 346 345 344 340 337 335 334 331 334 232 108 90 31 300 244 251 273 261 332 332 126 164 175 180 202 164 189 259 257 257 281 266 275 350 8 217 337 216
5 4 1 357 355 354 350 347 347 345 344 343 340 336 334 333 325 292 336 121 10 301 276 281 202 223 223 176 212 211 180 158 188 197 208 236 199 164 244 274 308 334 354 353 339 353 155
2 2 360 357 355 351 348 346 345 343 340 339 338 337 336 331 297 341 217 85 316 229 320 271 220 207 172 177 236 191 187 169 190 225 185 239 260 211 178 325 320 328 335 333 315 301 309
2 360 357 356 353 350 347 345 343 340 337 335 334 333 333 341 315 240 46 322 132 209 311 101 162 83 140 204 125 196 187 168 213 196 199 189 187 190 315 305 225 302 358 343 347 198 271
2 359 358 355 352 349 347 345 341 338 334 330 329 327 327 198 233 273 316 304 228 219 251 18 140 164 156 218 192 125 176 211 209 181 219 259 277 274 259 252 258 292 278 103 84 205 245
358 357 355 349 348 346 347 345 342 337 333 328 324 316 293 264 332 334 310 206 184 222 351 30 50 188 213 187 212 183 170 191 202 193 235 267 262 247 226 256 217 205 244 265 239 234 303
355 354 348 346 344 342 340 338 336 336 336 330 324 314 194 220 309 340 204 179 217 216 254 333 346 106 214 175 223 201 169 192 200 159 154 250 261 226 172 225 245 200 235 255 279 282 313
358 353 351 345 343 341 338 337 337 338 337 332 321 163 176 254 235 262 192 201 231 210 316 332 327 61 43 110 279 204 220 233 209 187 223 201 252 263 233 190 205 150 204 331 180 106 252
354 352 349 346 344 342 340 340 344 343 339 335 324 318 37 358 168 185 181 226 241 236 310 333 45 32 41 339 338 211 192 211 231 201 215 224 266 257 278 225 163 245 140 195 219 234 267
355 353 351 347 346 344 342 343 348 345 343 340 272 132 13 103 224 99 208 218 244 244 259 340 103 324 292 308 263 239 225 238 213 154 214 222 238 258 248 223 209 156 199 173 254 228 284
355 353 351 348 347 346 345 345 350 349 345 62 316 114 52 261 117 351 168 192 249 263 196 268 254 242 243 252 252 244 233 248 168 154 170 201 225 249 245 262 270 256 244 208 264 209 232
355 353 352 350 348 348 348 347 349 353 356 327 41 74 95 288 160 159 208 222 237 235 262 215 262 233 206 235 273 236 243 261 167 179 173 167 215 248 237 173 162 221 209 233 205 211 199
355 354 352 350 349 349 350 350 350 352 349 287 283 128 88 64 10 127 135 128 254 210 255 235 259 207 215 259 242 277 267 264 190 204 135 169 182 236 262 321 54 197 196 192 209 198 205
355 355 353 350 350 351 353 354 353 351 350 292 8 69 16 155 162 231 224 178 252 291 240 259 233 234 222 231 230 238 250 270 251 158 115 205 231 202 270 277 244 263 213 187 201 215 231
354 354 354 352 351 353 355 356 356 355 346 72 11 340 32 69 292 229 179 182 194 205 252 240 237 317 267 243 253 285 316 255 280 168 177 179 230 201 198 253 243 276 251 217 223 239 254
352 352 353 352 352 353 356 358 3 7 355 40 28 105 300 28 223 227 163 159 209 327 220 251 311 309 295 194 291 280 264 277 284 294 206 214 175 204 248 191 270 243 240 238 219 220 241
350 350 351 352 352 353 355 359 4 14 18 329 35 289 322 266 280 257 302 308 275 268 280 302 297 260 355 308 276 237 237 251 244 257 305 201 173 219 220 161 232 292 329 234 258 268 234
348 348 348 352 353 352 353 357 2 11 10 306 42 327 353 300 302 276 251 296 299 294 245 253 290 355 315 300 288 283 254 253 203 46 196 309 182 198 231 228 304 240 195 204 215 257 221
343 346 346 350 351 350 351 355 359 4 4 357 346 332 319 305 196 282 318 325 321 324 295 275 321 323 321 338 193 228 246 299 263 211 208 122 148 254 166 255 254 279 161 138 196 257 230
337 342 342 346 347 348 349 351 354 358 0 352 305 5 284 287 267 205 230 302 224 224 279 307 341 335 339 299 205 220 237 219 246 257 251 259 292 267 261 260 263 358 354 236 222 281 333
332 334 336 338 340 342 344 346 349 353 357 356 315 345 331 279 275 225 245 218 184 219 284 4 287 168 311 308 293 181 235 186 229 250 235 248 249 235 187 238 267 28 174 235 353 322 310
326 327 327 329 332 336 338 340 343 347 351 3 289 28 335 238 285 298 266 263 259 269 277 232 318 270 302 303 192 274 260 251 307 239 161 225 263 317 241 300 4 288 273 298 291 287 320